Date String (YYYY-MM-DD hh:mm:ss) UTC,Instrument flags,Ambient pressure (hPa),Sample flow (lpm),Bypass flow (lpm),Sample temperature (°C),Ambient temperature (°C),ASC tube jacket temperature (°C),LED temperature (°C),Box temperature (°C),Sample RH (%),Span deviation,Mass concentration (μg/m³),Mass concentration (μg/m³),Mass concentration (μg/m³)
DateTimeUTC,F1_M11,P_M11,Q1_M11,Q2_M11,T1_M11,T2_M11,T3_M11,T4_M11,T5_M11,U1_M11,ZSPAN_M11,X0_M11,X2_M11,X1_M11
2023-01-09 08:00:00,,0824.9,5.00,0.00,22.4,21.5,00.0,31.2,24.2,09.5,0000.0,0004.33,0001.64,0001.21
2023-01-09 08:01:00,,0824.9,5.00,0.00,22.4,21.4,00.0,31.2,24.2,09.4,0000.0,0003.93,0001.59,0001.18
2023-01-09 08:02:00,,0824.9,5.01,0.00,22.4,21.2,00.0,31.2,24.2,09.5,0000.0,0003.31,0001.53,0001.13
2023-01-09 08:03:00,,0824.9,5.00,0.00,22.4,21.1,00.0,31.2,24.1,09.6,0000.0,0003.20,0001.46,0001.09
2023-01-09 08:04:00,,0824.9,5.01,0.00,22.3,21.0,00.0,31.2,24.1,09.9,0000.0,0003.21,0001.45,0001.06
2023-01-09 08:05:00,,0824.9,5.00,0.00,22.3,20.9,00.0,31.2,24.1,10.1,0000.0,0003.13,0001.44,0001.06
2023-01-09 08:06:00,,0824.8,5.00,0.00,22.3,20.9,00.0,31.2,24.0,10.0,0000.0,0003.07,0001.40,0001.03
2023-01-09 08:07:00,,0824.8,5.00,0.00,22.3,20.8,00.0,31.2,24.0,10.0,0000.0,0002.95,0001.33,0000.98
2023-01-09 08:08:00,,0824.7,4.99,0.00,22.3,20.7,00.0,31.2,24.0,09.9,0000.0,0002.88,0001.29,0000.96
2023-01-09 08:09:00,,0824.8,5.01,0.00,22.3,20.7,00.0,31.2,23.9,10.0,0000.0,0002.86,0001.29,0000.95
2023-01-09 08:10:00,,0824.8,5.00,0.00,22.2,20.6,00.0,31.2,23.9,10.0,0000.0,0002.42,0001.29,0000.92
2023-01-09 08:11:00,,0824.7,5.00,0.00,22.2,20.5,00.0,31.2,23.9,10.1,0000.0,0003.48,0001.30,0000.92
2023-01-09 08:12:00,,0824.7,5.00,0.00,22.2,20.4,00.0,31.1,23.8,10.0,0000.0,0003.57,0001.32,0000.92
2023-01-09 08:13:00,,0824.8,5.00,0.00,22.1,20.4,00.0,31.1,23.8,09.9,0000.0,0003.63,0001.36,0000.94
2023-01-09 08:14:00,,0824.8,5.00,0.00,22.1,20.3,00.0,31.1,23.7,10.0,0000.0,0003.63,0001.36,0000.96
2023-01-09 08:15:00,,0824.8,5.00,0.00,22.1,20.3,00.0,31.1,23.7,10.0,0000.0,0003.67,0001.32,0000.96
2023-01-09 08:16:00,,0824.8,5.00,0.00,22.0,20.4,00.0,31.1,23.8,10.0,0000.0,0003.78,0001.29,0000.95
2023-01-09 08:17:00,,0824.7,5.01,0.00,22.0,20.4,00.0,31.0,23.7,09.9,0000.0,0003.99,0001.27,0000.95
2023-01-09 08:18:00,,0824.7,5.01,0.00,22.0,20.4,00.0,31.0,23.7,09.9,0000.0,0004.17,0001.23,0000.95
2023-01-09 08:19:00,,0824.7,5.00,0.00,22.0,20.5,00.0,31.0,23.7,10.1,0000.0,0004.06,0001.19,0000.94
2023-01-09 08:20:00,,0824.7,4.99,0.00,22.0,20.5,00.0,31.0,23.8,10.0,0000.0,0003.99,0001.17,0000.94
2023-01-09 08:21:00,,0824.7,5.01,0.00,22.0,20.5,00.0,31.0,23.8,10.1,0000.0,0004.01,0001.15,0000.93
2023-01-09 08:22:00,,0824.8,5.00,0.00,22.0,20.6,00.0,31.0,23.7,10.0,0000.0,0002.54,0001.09,0000.91
2023-01-09 08:23:00,,0824.7,5.01,0.00,22.0,20.6,00.0,31.0,23.7,10.2,0000.0,0002.53,0001.08,0000.90
2023-01-09 08:24:00,,0824.7,4.99,0.00,22.0,20.6,00.0,31.0,23.7,10.2,0000.0,0002.54,0001.06,0000.88
2023-01-09 08:25:00,,0824.7,4.99,0.00,22.0,20.6,00.0,30.9,23.7,10.3,0000.0,0002.50,0001.04,0000.87
2023-01-09 08:26:00,,0824.7,5.00,0.00,22.0,20.6,00.0,30.9,23.8,10.5,0000.0,0002.44,0001.05,0000.86
2023-01-09 08:27:00,,0824.7,5.00,0.00,22.0,20.6,00.0,30.9,23.7,10.8,0000.0,0002.26,0001.02,0000.84
2023-01-09 08:28:00,,0824.6,5.00,0.00,22.0,20.6,00.0,30.9,23.7,10.9,0000.0,0002.06,0001.03,0000.83
2023-01-09 08:29:00,,0824.7,5.00,0.00,22.0,20.6,00.0,30.9,23.7,11.0,0000.0,0001.89,0001.04,0000.82
2023-01-09 08:30:00,,0824.7,5.00,0.00,22.0,20.6,00.0,30.9,23.6,11.2,0000.0,0001.91,0001.06,0000.82
2023-01-09 08:31:00,,0824.7,5.00,0.00,22.0,20.6,00.0,30.9,23.6,10.8,0000.0,0001.89,0001.04,0000.80
2023-01-09 08:32:00,,0824.7,5.01,0.00,22.0,21.3,00.0,30.8,23.8,10.7,0000.0,0001.78,0001.02,0000.80
2023-01-09 08:33:00,,0824.7,5.00,0.00,22.1,22.3,00.0,30.8,24.1,11.0,0000.0,0001.79,0001.03,0000.80
2023-01-09 08:34:00,,0824.8,5.00,0.00,22.3,22.8,00.0,30.9,24.3,11.0,0000.0,0001.73,0001.03,0000.80
2023-01-09 08:35:00,,0824.7,4.99,0.00,22.3,22.4,00.0,30.9,24.3,10.8,0000.0,0001.70,0001.00,0000.79
2023-01-09 08:36:00,,0824.7,5.00,0.00,22.3,21.9,00.0,31.0,24.2,10.5,0000.0,0001.74,0001.01,0000.78
2023-01-09 08:37:00,,0824.7,5.00,0.00,22.3,21.7,00.0,31.0,24.1,10.5,0000.0,0001.60,0000.99,0000.78
2023-01-09 08:38:00,,0824.7,5.00,0.00,22.3,21.5,00.0,31.0,24.1,10.7,0000.0,0001.62,0001.00,0000.77
2023-01-09 08:39:00,,0824.6,5.00,0.00,22.3,21.3,00.0,31.0,24.0,10.8,0000.0,0001.66,0001.02,0000.76
2023-01-09 08:40:00,,0824.8,4.99,0.00,22.3,21.2,00.0,31.0,24.0,10.4,0000.0,0001.58,0001.00,0000.76
2023-01-09 08:41:00,,0824.8,5.00,0.00,22.3,21.1,00.0,31.0,24.0,10.6,0000.0,0001.53,0000.96,0000.75
2023-01-09 08:42:00,,0824.8,5.00,0.00,22.2,21.0,00.0,31.0,24.0,10.9,0000.0,0001.67,0001.00,0000.75
2023-01-09 08:43:00,,0824.8,4.99,0.00,22.2,20.9,00.0,31.1,23.9,10.8,0000.0,0001.66,0000.99,0000.74
2023-01-09 08:44:00,,0824.8,5.00,0.00,22.2,20.8,00.0,31.1,23.9,10.9,0000.0,0001.64,0000.98,0000.74
2023-01-09 08:45:00,,0824.7,4.99,0.00,22.2,20.8,00.0,31.0,23.9,10.8,0000.0,0001.56,0000.95,0000.72
2023-01-09 08:46:00,,0824.8,5.01,0.00,22.2,20.8,00.0,31.0,23.9,10.6,0000.0,0001.47,0000.93,0000.71
2023-01-09 08:47:00,,0824.8,5.00,0.00,22.2,20.7,00.0,31.0,23.8,10.7,0000.0,0001.44,0000.91,0000.70
2023-01-09 08:48:00,,0824.8,5.01,0.00,22.1,20.7,00.0,31.0,23.8,10.9,0000.0,0001.63,0000.90,0000.68
2023-01-09 08:49:00,,0824.8,5.01,0.00,22.1,20.6,00.0,31.0,23.8,10.9,0000.0,0001.98,0000.90,0000.68
2023-01-09 08:50:00,,0824.8,5.00,0.00,22.1,20.6,00.0,31.0,23.7,10.8,0000.0,0001.87,0000.87,0000.67
2023-01-09 08:51:00,,0824.8,5.00,0.00,22.1,20.6,00.0,31.0,23.8,10.8,0000.0,0001.91,0000.88,0000.66
2023-01-09 08:52:00,,0824.6,4.99,0.00,22.1,20.5,00.0,31.0,23.7,11.0,0000.0,0002.28,0000.90,0000.66
2023-01-09 08:53:00,,0824.6,4.99,0.00,22.0,20.5,00.0,31.0,23.7,11.1,0000.0,0003.51,0000.84,0000.64
2023-01-09 08:54:00,,0824.4,5.00,0.00,22.0,20.4,00.0,30.9,23.7,11.0,0000.0,0003.48,0000.83,0000.65
2023-01-09 08:55:00,,0824.7,5.01,0.00,22.0,20.9,00.0,30.9,23.8,10.8,0000.0,0004.73,0000.84,0000.64
2023-01-09 08:56:00,,0824.6,5.00,0.00,22.1,21.9,00.0,30.9,24.0,11.1,0000.0,0005.02,0000.87,0000.64
2023-01-09 08:57:00,,0824.5,5.00,0.00,22.3,22.8,00.0,30.9,24.3,11.0,0000.0,0005.03,0000.88,0000.64
2023-01-09 08:58:00,,0824.6,4.99,0.00,22.3,22.6,00.0,31.0,24.3,11.1,0000.0,0005.03,0000.88,0000.65
2023-01-09 08:59:00,,0824.5,5.00,0.00,22.4,22.2,00.0,31.0,24.2,10.9,0000.0,0004.94,0000.86,0000.65
